Location: ?nandapuram
(16.5396°N, 81.1430°E)
Time: 15:21:02
(UTC+00:00)

Cosmos 783 Rocket - Pass Details

Date: 14 April 2026
Orbit: 753 x 776 km, 74.1° (Epoch: 11 May)

Event Time Altitude Azimuth Distance (km) Brightness Sun altitude
Rises 13:27:16 0° 347° (NNW) 3,227 8.1 -9.4°
Reaches altitude 10° 13:29:38 10° 348° (NNW) 2,303 7.3 -10.0°
Maximum altitude 13:34:52 86° 77° (ENE) 775 4.5 -11.2°
Drops below altitude 10° 13:40:08 10° 166° (SSE) 2,311 6.7 -12.4°
Sets 13:42:30 0° 166° (SSE) 3,239 7.5 -13.0°
